TimeCST,TemperatureF,Dew PointF,Humidity,Sea Level PressureIn,VisibilityMPH,Wind Direction,Wind SpeedMPH,Gust SpeedMPH,PrecipitationIn,Events,Conditions,WindDirDegrees,DateUTC
12:56 AM,37.9,28.9,70,29.94,9.0,West,13.8,23.0,N/A,,Clear,260,2013-01-09 06:56:00
1:56 AM,35.1,28.0,76,29.98,9.0,West,13.8,26.5,N/A,,Clear,260,2013-01-09 07:56:00
2:56 AM,33.1,27.0,78,30.01,8.0,West,15.0,20.7,N/A,,Clear,260,2013-01-09 08:56:00
3:56 AM,32.0,26.1,79,30.04,9.0,West,16.1,-,N/A,,Clear,270,2013-01-09 09:56:00
4:56 AM,32.0,25.0,75,30.06,9.0,West,8.1,-,N/A,,Partly Cloudy,260,2013-01-09 10:56:00
5:56 AM,28.9,23.0,78,30.10,9.0,WSW,5.8,-,N/A,,Clear,240,2013-01-09 11:56:00
6:56 AM,30.9,24.1,76,30.12,10.0,SW,8.1,-,N/A,,Clear,230,2013-01-09 12:56:00
7:56 AM,28.0,21.9,78,30.14,9.0,West,5.8,-,N/A,,Clear,260,2013-01-09 13:56:00
9:56 AM,34.0,25.0,70,30.20,10.0,WSW,10.4,16.1,N/A,,Clear,250,2013-01-09 15:56:00
10:56 AM,36.0,25.0,64,30.20,10.0,West,10.4,-,N/A,,Clear,260,2013-01-09 16:56:00
11:56 AM,37.9,24.1,57,30.22,10.0,West,15.0,25.3,N/A,,Clear,270,2013-01-09 17:56:00
12:56 PM,37.9,24.1,57,30.27,10.0,West,15.0,24.2,N/A,,Clear,260,2013-01-09 18:56:00
1:56 PM,39.0,23.0,53,30.30,10.0,West,23.0,31.1,N/A,,Clear,270,2013-01-09 19:56:00
2:56 PM,39.0,24.1,55,30.36,10.0,West,17.3,23.0,N/A,,Clear,270,2013-01-09 20:56:00
3:56 PM,39.0,21.9,50,30.37,10.0,West,17.3,-,N/A,,Clear,280,2013-01-09 21:56:00
4:56 PM,36.0,23.0,59,30.38,10.0,West,9.2,-,N/A,,Clear,280,2013-01-09 22:56:00
5:56 PM,33.1,21.9,64,30.40,10.0,West,3.5,-,N/A,,Clear,270,2013-01-09 23:56:00
6:56 PM,24.1,19.0,81,30.43,10.0,Calm,Calm,-,N/A,,Clear,0,2013-01-10 00:56:00
7:56 PM,21.9,17.1,82,30.45,10.0,Calm,Calm,-,N/A,,Clear,0,2013-01-10 01:56:00
8:56 PM,18.0,15.1,88,30.44,10.0,SSE,4.6,-,N/A,,Clear,150,2013-01-10 02:56:00
9:56 PM,17.1,12.9,84,30.43,10.0,Calm,Calm,-,N/A,,Clear,0,2013-01-10 03:56:00
10:56 PM,17.1,14.0,88,30.45,10.0,SW,3.5,-,N/A,,Clear,230,2013-01-10 04:56:00
11:56 PM,18.0,14.0,84,30.48,10.0,ENE,4.6,-,N/A,,Clear,60,2013-01-10 05:56:00